TimeEST,TemperatureF,Dew PointF,Humidity,Sea Level PressureIn,VisibilityMPH,Wind Direction,Wind SpeedMPH,Gust SpeedMPH,PrecipitationIn,Events,Conditions,WindDirDegrees,DateUTC
12:54 AM,35.1,18.0,50,29.83,10.0,WSW,12.7,-,N/A,,Partly Cloudy,250,2013-01-05 05:54:00
1:54 AM,35.1,19.0,52,29.85,10.0,WSW,12.7,-,N/A,,Scattered Clouds,250,2013-01-05 06:54:00
2:54 AM,36.0,19.9,52,29.87,10.0,WSW,13.8,-,N/A,,Overcast,250,2013-01-05 07:54:00
3:54 AM,35.1,19.9,54,29.89,10.0,WSW,13.8,18.4,N/A,,Clear,250,2013-01-05 08:54:00
4:54 AM,35.1,21.0,57,29.90,10.0,WSW,12.7,-,N/A,,Clear,250,2013-01-05 09:54:00
5:54 AM,34.0,21.0,59,29.95,10.0,SW,8.1,-,N/A,,Clear,230,2013-01-05 10:54:00
6:54 AM,32.0,19.9,61,29.99,10.0,SW,6.9,-,N/A,,Clear,230,2013-01-05 11:54:00
7:54 AM,33.1,19.9,59,30.02,10.0,WSW,9.2,-,N/A,,Clear,240,2013-01-05 12:54:00
8:54 AM,36.0,21.0,55,30.07,10.0,WSW,9.2,-,N/A,,Clear,250,2013-01-05 13:54:00
9:34 AM,37.4,21.2,52,30.09,10.0,WNW,8.1,-,N/A,,Mostly Cloudy,290,2013-01-05 14:34:00
9:54 AM,37.9,19.9,48,30.12,10.0,WNW,15.0,23.0,N/A,,Overcast,300,2013-01-05 14:54:00
10:54 AM,39.0,18.0,43,30.13,10.0,WNW,17.3,26.5,N/A,,Scattered Clouds,300,2013-01-05 15:54:00
11:54 AM,39.2,17.6,42,30.14,10.0,WNW,10.4,19.6,N/A,,Clear,300,2013-01-05 16:54:00
12:54 PM,39.9,16.0,38,30.15,10.0,WNW,11.5,20.7,N/A,,Clear,300,2013-01-05 17:54:00
1:54 PM,41.0,15.1,35,30.16,10.0,NNW,12.7,20.7,N/A,,Clear,330,2013-01-05 18:54:00
2:54 PM,39.0,15.1,38,30.16,10.0,NW,10.4,-,N/A,,Clear,320,2013-01-05 19:54:00
3:54 PM,37.9,12.9,36,30.19,10.0,NNW,6.9,-,N/A,,Clear,340,2013-01-05 20:54:00
4:54 PM,36.0,12.9,39,30.23,10.0,NW,5.8,-,N/A,,Clear,320,2013-01-05 21:54:00
5:54 PM,30.9,14.0,50,30.24,10.0,Calm,Calm,-,N/A,,Clear,0,2013-01-05 22:54:00
6:54 PM,28.9,14.0,54,30.26,10.0,Calm,Calm,-,N/A,,Clear,0,2013-01-05 23:54:00
7:54 PM,25.0,17.1,72,30.27,10.0,East,3.5,-,N/A,,Clear,80,2013-01-06 00:54:00
8:54 PM,24.1,17.1,75,30.27,10.0,Calm,Calm,-,N/A,,Clear,0,2013-01-06 01:54:00
9:54 PM,25.0,15.1,66,30.26,10.0,Calm,Calm,-,N/A,,Clear,0,2013-01-06 02:54:00
10:54 PM,21.9,14.0,72,30.27,10.0,Calm,Calm,-,N/A,,Clear,0,2013-01-06 03:54:00
11:54 PM,24.1,17.1,75,30.24,10.0,East,3.5,-,N/A,,Clear,80,2013-01-06 04:54:00